This is the latest recevied weather packets stored in our database for station/object OK2ILA-14. If no packets are shown the sender has not sent any weather packets the latest 10 day(s).
| Time | Temp. | Humidity | Pressure | Rain* | Wind** | Luminosity | Snow |
|---|---|---|---|---|---|---|---|
| 1777653249 | 24.44° C | 26% | 1023 hPa | - | - | - | - |
| 1777652655 | 24.44° C | 26% | 1023.1 hPa | - | - | - | - |
| 1777652049 | 26.11° C | 25% | 1023.1 hPa | - | - | - | - |
| 1777651449 | 26.67° C | 24% | 1023.1 hPa | - | - | - | - |
| 1777649647 | 27.22° C | 25% | 1023.3 hPa | - | - | - | - |
| 1777649047 | 26.67° C | 25% | 1023.4 hPa | - | - | - | - |
| 1777648447 | 25.56° C | 26% | 1023.5 hPa | - | - | - | - |
| 1777647847 | 25.56° C | 25% | 1023.6 hPa | - | - | - | - |
| 1777646046 | 26.67° C | 26% | 1023.9 hPa | - | - | - | - |
| 1777645446 | 26.67° C | 26% | 1023.9 hPa | - | - | - | - |
| 1777644846 | 26.67° C | 26% | 1024 hPa | - | - | - | - |
| 1777644246 | 26.67° C | 26% | 1024.1 hPa | - | - | - | - |
| 1777643646 | 25.56° C | 26% | 1024.1 hPa | - | - | - | - |
| 1777642445 | 26.11° C | 26% | 1024.3 hPa | - | - | - | - |
| 1777641845 | 25.56° C | 27% | 1024.3 hPa | - | - | - | - |
| 1777640645 | 26.11° C | 26% | 1024.6 hPa | - | - | - | - |
| 1777640045 | 25.56° C | 27% | 1024.7 hPa | - | - | - | - |
| 1777638844 | 25° C | 28% | 1025 hPa | - | - | - | - |
| 1777638244 | 24.44° C | 28% | 1025 hPa | - | - | - | - |
| 1777637044 | 24.44° C | 29% | 1025.1 hPa | - | - | - | - |
| 1777636444 | 25° C | 28% | 1025.2 hPa | - | - | - | - |
| 1777635844 | 25° C | 28% | 1025.3 hPa | - | - | - | - |
| 1777635243 | 24.44° C | 29% | 1025.3 hPa | - | - | - | - |
| 1777634643 | 23.33° C | 29% | 1025.5 hPa | - | - | - | - |
| 1777634043 | 23.89° C | 30% | 1025.6 hPa | - | - | - | - |
* Rain since midnight (hover to see other rain measurements)
** Current wind speed in m/s (hover to see current wind gust speed)